Powrót do katalogu

STARLINK-37118

AktywnyŁącznośćSSO
NORAD 68299·PAYLOAD·🇺🇸 United States

Wystrzelony Mar 20, 2026 z Vandenberg Space Force Base

Loading…

Następne Przeloty (najbliższe 24 godziny)

TLE

ŚwieżeSource: CelesTrak SupGP

Epoka: Sep 14, 2026, 23:21 UTC

1 68299C 26057F   26257.97340278 -.00039820  00000+0 -12349-2 0  2577
2 68299  97.2862  23.3929 0000831 125.5559 205.9408 15.33491017    15

Śledź STARLINK-37118 w czasie rzeczywistym z AllMySat

Download on the App Store